• In Czech Republic
  • List of Countries
  • For 7 days
  • Water Temperature
  • Satellite Maps
  • Weather Map
  • Weather Widgets
  • user-avatar
    Login

    Hourly Weather Namibe

    Today, 15 October, Monday

    Time Temperature Precipitation Wind Pressure Humidity
    00:00 +26°C° 0 mm 3 mps 758 mmHg 53%
    01:00 +26°C° 0 mm 3 mps 758 mmHg 52%
    02:00 +25°C° 0 mm 3 mps 758 mmHg 53%
    03:00 +25°C° 0 mm 3 mps 758 mmHg 53%
    04:00 +25°C° 0 mm 3 mps 758 mmHg 54%
    05:00 +25°C° 0 mm 2 mps 758 mmHg 54%
    06:00 +25°C° 0 mm 2 mps 758 mmHg 54%
    07:00 +26°C° 0 mm 2 mps 759 mmHg 54%
    08:00 +28°C° 0 mm 2 mps 759 mmHg 49%
    09:00 +31°C° 0 mm 2 mps 759 mmHg 44%
    10:00 +34°C° 0 mm 2 mps 759 mmHg 39%
    11:00 +35°C° 0 mm 3 mps 758 mmHg 36%
    12:00 +37°C° 0 mm 4 mps 758 mmHg 33%
    13:00 +40°C° 0 mm 5 mps 757 mmHg 28%
    14:00 +37°C° 0 mm 5 mps 757 mmHg 31%
    15:00 +35°C° 0 mm 6 mps 757 mmHg 34%
    16:00 +34°C° 0 mm 6 mps 756 mmHg 37%
    17:00 +32°C° 0 mm 5 mps 757 mmHg 40%
    18:00 +30°C° 0 mm 4 mps 757 mmHg 43%
    19:00 +28°C° 0 mm 2 mps 758 mmHg 47%
    20:00 +28°C° 0 mm 2 mps 758 mmHg 47%
    21:00 +28°C° 0 mm 2 mps 758 mmHg 48%
    22:00 +28°C° 0 mm 2 mps 759 mmHg 49%
    23:00 +27°C° 0 mm 2 mps 758 mmHg 52%

    Tomorrow, 16 October, Tuesday

    Time Temperature Precipitation Wind Pressure Humidity
    00:00 +26°C° 0 mm 2 mps 758 mmHg 55%
    01:00 +26°C° 0 mm 2 mps 758 mmHg 58%
    02:00 +25°C° 0 mm 2 mps 758 mmHg 61%
    03:00 +25°C° 0 mm 2 mps 758 mmHg 64%
    04:00 +24°C° 0 mm 2 mps 757 mmHg 67%
    05:00 +25°C° 0 mm 2 mps 758 mmHg 65%
    06:00 +25°C° 0 mm 2 mps 758 mmHg 64%
    07:00 +26°C° 0 mm 2 mps 758 mmHg 62%
    08:00 +29°C° 0 mm 2 mps 759 mmHg 52%
    09:00 +31°C° 0 mm 2 mps 759 mmHg 42%
    10:00 +35°C° 0 mm 2 mps 759 mmHg 33%
    11:00 +36°C° 0 mm 3 mps 758 mmHg 31%
    12:00 +37°C° 0 mm 4 mps 757 mmHg 29%
    13:00 +39°C° 0 mm 5 mps 757 mmHg 27%
    14:00 +38°C° 0 mm 6 mps 756 mmHg 29%
    15:00 +36°C° 0 mm 6 mps 756 mmHg 31%
    16:00 +34°C° 0 mm 7 mps 755 mmHg 33%
    17:00 +33°C° 0 mm 6 mps 756 mmHg 37%
    18:00 +30°C° 0 mm 5 mps 756 mmHg 41%
    19:00 +28°C° 0 mm 4 mps 757 mmHg 44%
    20:00 +28°C° 0 mm 3 mps 757 mmHg 47%
    21:00 +27°C° 0 mm 3 mps 758 mmHg 50%
    22:00 +27°C° 0 mm 3 mps 758 mmHg 52%
    23:00 +26°C° 0 mm 3 mps 758 mmHg 55%

    Day after tomorrow, 17 October, Wednesday

    Time Temperature Precipitation Wind Pressure Humidity
    00:00 +25°C° 0 mm 3 mps 758 mmHg 59%
    01:00 +24°C° 0 mm 3 mps 758 mmHg 62%
    02:00 +24°C° 0 mm 3 mps 757 mmHg 64%
    03:00 +22°C° 0 mm 3 mps 757 mmHg 66%
    04:00 +23°C° 0 mm 2 mps 757 mmHg 68%
    05:00 +23°C° 0 mm 2 mps 757 mmHg 67%
    06:00 +24°C° 0 mm 2 mps 758 mmHg 65%
    07:00 +24°C° 0 mm 2 mps 758 mmHg 64%
    08:00 +27°C° 0 mm 3 mps 758 mmHg 55%
    09:00 +29°C° 0 mm 3 mps 758 mmHg 46%
    10:00 +33°C° 0 mm 4 mps 758 mmHg 38%
    11:00 +33°C° 0 mm 4 mps 757 mmHg 37%
    12:00 +34°C° 0 mm 5 mps 757 mmHg 37%
    13:00 +35°C° 0 mm 5 mps 756 mmHg 36%
    14:00 +34°C° 0 mm 5 mps 756 mmHg 40%
    15:00 +33°C° 0 mm 5 mps 755 mmHg 43%
    16:00 +30°C° 0 mm 5 mps 755 mmHg 47%
    17:00 +29°C° 0 mm 4 mps 755 mmHg 53%
    18:00 +27°C° 0 mm 3 mps 756 mmHg 59%
    19:00 +25°C° 0 mm 2 mps 757 mmHg 66%
    20:00 +25°C° 0 mm 2 mps 757 mmHg 67%
    21:00 +25°C° 0 mm 2 mps 758 mmHg 67%
    22:00 +25°C° 0 mm 1 mps 758 mmHg 68%
    23:00 +25°C° 0 mm 1 mps 758 mmHg 70%

    18 October, Thursday

    Time Temperature Precipitation Wind Pressure Humidity
    00:00 +24°C° 0 mm 2 mps 757 mmHg 72%
    01:00 +24°C° 0 mm 2 mps 757 mmHg 73%
    02:00 +24°C° 0 mm 2 mps 757 mmHg 76%
    03:00 +23°C° 0 mm 2 mps 757 mmHg 79%
    04:00 +23°C° 0 mm 2 mps 756 mmHg 82%
    05:00 +23°C° 0 mm 2 mps 757 mmHg 82%
    06:00 +23°C° 0 mm 2 mps 758 mmHg 83%
    07:00 +23°C° 0 mm 2 mps 758 mmHg 83%
    08:00 +25°C° 0 mm 2 mps 758 mmHg 73%
    09:00 +27°C° 0 mm 2 mps 758 mmHg 63%
    10:00 +30°C° 0 mm 3 mps 758 mmHg 53%
    11:00 +32°C° 0 mm 4 mps 757 mmHg 51%
    12:00 +33°C° 0 mm 4 mps 756 mmHg 48%
    13:00 +34°C° 0 mm 5 mps 756 mmHg 45%
    14:00 +33°C° 0 mm 5 mps 755 mmHg 50%
    15:00 +32°C° 0 mm 5 mps 755 mmHg 54%
    16:00 +29°C° 0 mm 4 mps 754 mmHg 59%
    17:00 +28°C° 0 mm 4 mps 755 mmHg 64%
    18:00 +27°C° 0 mm 4 mps 756 mmHg 70%
    19:00 +25°C° 0 mm 3 mps 756 mmHg 75%
    20:00 +25°C° 0 mm 3 mps 757 mmHg 76%
    21:00 +25°C° 0 mm 2 mps 757 mmHg 77%
    22:00 +24°C° 0 mm 2 mps 757 mmHg 78%
    23:00 +24°C° 0 mm 2 mps 757 mmHg 79%

    19 October, Friday

    Time Temperature Precipitation Wind Pressure Humidity
    00:00 +24°C° 0 mm 2 mps 757 mmHg 79%
    01:00 +24°C° 0 mm 1 mps 757 mmHg 80%
    02:00 +24°C° 0 mm 1 mps 757 mmHg 82%
    03:00 +23°C° 0 mm 1 mps 757 mmHg 83%
    04:00 +23°C° 0 mm 1 mps 757 mmHg 85%
    05:00 +23°C° 0 mm 1 mps 757 mmHg 84%
    06:00 +24°C° 0 mm 1 mps 758 mmHg 84%
    07:00 +24°C° 0 mm 1 mps 758 mmHg 83%
    08:00 +26°C° 0 mm 1 mps 758 mmHg 73%
    09:00 +28°C° 0 mm 2 mps 758 mmHg 64%
    10:00 +31°C° 0 mm 3 mps 758 mmHg 54%
    11:00 +31°C° 0 mm 3 mps 758 mmHg 51%
    12:00 +33°C° 0 mm 4 mps 757 mmHg 47%
    13:00 +34°C° 0 mm 5 mps 756 mmHg 44%
    14:00 +33°C° 0 mm 5 mps 756 mmHg 47%
    15:00 +32°C° 0 mm 5 mps 756 mmHg 51%
    16:00 +30°C° 0 mm 5 mps 755 mmHg 55%
    17:00 +29°C° 0 mm 4 mps 756 mmHg 62%
    18:00 +27°C° 0 mm 4 mps 757 mmHg 70%
    19:00 +25°C° 0 mm 3 mps 757 mmHg 77%
    20:00 +25°C° 0 mm 2 mps 758 mmHg 78%
    21:00 +25°C° 0 mm 2 mps 758 mmHg 79%
    22:00 +24°C° 0 mm 1 mps 759 mmHg 80%
    23:00 +25°C° 0 mm 1 mps 759 mmHg 80%

    20 October, Saturday

    Time Temperature Precipitation Wind Pressure Humidity
    00:00 +25°C° 0 mm 2 mps 759 mmHg 80%
    01:00 +25°C° 0 mm 2 mps 758 mmHg 80%
    02:00 +24°C° 0 mm 2 mps 758 mmHg 81%
    03:00 +24°C° 0 mm 2 mps 758 mmHg 82%
    04:00 +24°C° 0 mm 1 mps 757 mmHg 83%
    05:00 +25°C° 0 mm 2 mps 758 mmHg 80%
    06:00 +25°C° 0 mm 2 mps 758 mmHg 77%
    07:00 +26°C° 0 mm 2 mps 758 mmHg 74%
    08:00 +28°C° 0 mm 2 mps 758 mmHg 63%
    09:00 +31°C° 0 mm 2 mps 758 mmHg 52%
    10:00 +34°C° 0 mm 3 mps 758 mmHg 41%
    11:00 +36°C° 0 mm 4 mps 757 mmHg 38%
    12:00 +37°C° 0 mm 5 mps 756 mmHg 35%
    13:00 +39°C° 0 mm 6 mps 755 mmHg 32%
    14:00 +38°C° 0 mm 6 mps 755 mmHg 35%
    15:00 +35°C° 0 mm 6 mps 755 mmHg 38%
    16:00 +34°C° 0 mm 6 mps 755 mmHg 40%
    17:00 +32°C° 0 mm 5 mps 756 mmHg 46%
    18:00 +29°C° 0 mm 4 mps 756 mmHg 52%
    19:00 +27°C° 0 mm 3 mps 757 mmHg 57%
    20:00 +27°C° 0 mm 3 mps 757 mmHg 58%
    21:00 +27°C° 0 mm 2 mps 758 mmHg 58%
    22:00 +27°C° 0 mm 2 mps 758 mmHg 58%
    23:00 +27°C° 0 mm 2 mps 758 mmHg 59%
    Show more